Regional Weather Roundup
Issued by NWS

Home | Current Version | Previous Version | Graphics & Text | Print | Product List | Glossary On
Versions: 1 2 3 4 5 6 7 8 9 10 11 12 13 14 15 16 17 18 19 20 21 22 23 24 25 26 27
000
ASUS45 KBOU 291707
RWRCO

WEATHER ROUNDUP FOR COLORADO
NATIONAL WEATHER SERVICE DENVER/BOULDER CO
1100 AM MDT MON AUG 29 2016

NOTE: "FAIR" INDICATES FEW OR NO CLOUDS BELOW 12000 FEET WITH NO
SIGNIFICANT WEATHER AND/OR OBSTRUCTIONS TO VISIBILITY.

COZ001>005-013-030-031-291800-
...NORTHWEST COLORADO...

CITY           SKY/WX    TMP DP  RH WIND       PRES   REMARKS
CRAIG          FAIR      70  37  29 CALM      30.37S
HAYDEN         FAIR      64  37  36 E9        30.39S
MEEKER         FAIR      67  39  35 CALM      30.37F
MOUNT WERNER   NOT AVBL
STEAMBOAT SPGS FAIR      60  38  44 CALM      30.42S
WALDEN         FAIR      54  36  50 CALM      30.51F
$$

COZ006>008-011-291800-
...WEST CENTRAL VALLEYS...

CITY           SKY/WX    TMP DP  RH WIND       PRES   REMARKS
GRAND JUNCTION FAIR      74  44  34 S7        30.28F
MONTROSE       FAIR      64  44  48 CALM      30.36F
EAGLE          MOSUNNY   57  46  67 NE6       30.45S
RIFLE          FAIR      62  50  64 CALM      30.34F
DELTA          FAIR      69  45  42 CALM      30.34S
NUCLA          FAIR     N/A N/A N/A CALM      30.38F
$$

COZ017>023-064>068-291800-
...SOUTHWEST COLORADO...

CITY           SKY/WX    TMP DP  RH WIND       PRES   REMARKS
DURANGO        FAIR      68  41  37 E5        30.38R
CORTEZ         FAIR      69  42  37 CALM      30.33F
PAGOSA SPRINGS CLOUDY    62  42  47 CALM      30.44S
TELLURIDE      PTSUNNY   58  39  48 W10       30.53S
WOLF CREEK PAS CLOUDY    46  36  66 SW6       30.69S
$$

COZ009-010-012-014-032>034-037-058>063-291800-
...CENTRAL COLORADO...

CITY           SKY/WX    TMP DP  RH WIND       PRES   REMARKS
ASPEN          PTSUNNY   58  40  51 CALM      30.46R
BUENA VISTA    FAIR      60  44  56 W3        30.50S
COPPER MTN     PTSUNNY   50  32  50 E5G16     30.71R
BERTHOUD PASS  CLOUDY    39  28  65 E20G35    30.76S
COTTONWOOD PAS CLOUDY    55  41  58 CALM      30.60R
GUNNISON       FAIR      54  43  66 N5        30.50S
KREMMLING      FAIR      54  41  62 SE3       30.51R
LEADVILLE      LGT RAIN  45  41  86 CALM      30.59R
MONARCH PASS   PTSUNNY   45  39  81 E14       30.79R HAZE
SALIDA         FAIR      61  46  56 CALM      30.54S
SUNLIGHT       FAIR      54  41  62 SW3       30.66R
WILKERSON PASS FAIR      50  41  71 E9G17     30.70R
$$

COZ069>075-291800-
...SAN LUIS VALLEY/SANGRE DE CRISTO MOUNTAINS...

CITY           SKY/WX    TMP DP  RH WIND       PRES   REMARKS
ALAMOSA        FAIR      59  45  59 E5        30.45R
LA VETA PASS   CLOUDY    54  43  66 NE7       30.60R
SAGUACHE       FAIR      61  45  55 S6        30.46F
$$

COZ035-036-038>040-291800-
...NORTHERN COLORADO FRONT RANGE...

CITY           SKY/WX    TMP DP  RH WIND       PRES   REMARKS
DENVER INTL AP PTSUNNY   81  42  25 E5        30.31S
DMNS CITY PARK   N/A     75  45  33 W6        30.32S
AURORA         PTSUNNY   78  44  29 NW7       30.34R
FRONT RANGE AP PTSUNNY   81  43  26 E6        30.33R
ERIE MUNI ARPT FAIR      73  44  36 NW5       30.31S
BOULDER MUN AP FAIR      72  43  35 NE5       30.32S
CENTENNIAL     PTSUNNY   77  42  28 NW3       30.34R
BROOMFIELD     PTSUNNY   73  43  33 N6        30.35R
FORT COLLINS   FAIR      73  43  33 CALM      30.30R
LONGMONT       FAIR      75  45  33 CALM      30.32S
$$

COZ041-046-047-076>085-087-088-291800-
...PIKES PEAK/PALMER DIVIDE AND SOUTHERN FOOTHILLS...

CITY           SKY/WX    TMP DP  RH WIND       PRES   REMARKS
COLO. SPRINGS  PTSUNNY   72  46  39 SE9       30.39R
A. F. ACADEMY  PTSUNNY   71  47  42 S6        30.39R
SCHRIEVER AFB  NOT AVBL
ELLICOTT       NOT AVBL
FALCON         FAIR      71  49  45 NE7       30.43S
FORT CARSON    FAIR      70  48  44 E7        30.36R
LIMON          FAIR      74  50  42 E10       30.33R
MONUMENT HILL  FAIR      68  46  45 NE3       30.44R
TRINIDAD       CLOUDY    66  47  50 W12       30.36R
$$

COZ042>045-048>051-090-091-291800-
...NORTHEAST COLORADO...

CITY           SKY/WX    TMP DP  RH WIND       PRES   REMARKS
GREELEY ARPT   FAIR      73  52  46 CALM      30.30R
AKRON          FAIR      77  49  37 E8        30.29S
BURLINGTON     FAIR      72  60  66 SE15      30.28S
WRAY             N/A     73  61  64 SE7       30.26
STERLING       FAIR      79  52  38 NE5       30.24S
HOLYOKE        FAIR      79  59  50 CALM      30.25S
FORT MORGAN    FAIR      77  53  43 SE3       30.29R
$$

COZ086-089-092>099-291800-
...SOUTHEAST COLORADO...

CITY           SKY/WX    TMP DP  RH WIND       PRES   REMARKS
PUEBLO         FAIR      74  52  46 E8        30.29R
LA JUNTA       FAIR      70  55  59 E7        30.28R
LAMAR          CLOUDY    66  60  81 CALM      30.25R
SPRINGFIELD      N/A     67  53  61 NW7       30.29R
$$




USA.gov is the U.S. government's official web portal to all federal, state and local government web resources and services.